リニア彗星

C/2004 YJ35 ( LINEAR )

English version
Home page
Updated on December 6, 2005

---------------------------------------------------------------------

・ プロフィール

発見日 2004年12月31日
発見光度 19.4等
発見者 Lincoln Laboratory Near-Earth Asteroid Research project

・ 軌道要素

Epoch 2005 Mar. 11.0 TT = JDT 2453440.5
T 2005 Mar. 3.15165 TT                                  MPC
q   1.7812017            (2000.0)            P               Q
z  +0.0000712      Peri.  136.89877     -0.40187633     -0.81505673
 +/-0.0000035      Node   328.24962     +0.46164775     +0.21327131
e   0.9998732      Incl.   52.47644     +0.79080767     -0.53870017

・ 星図

・ 光度変化

        H = 14.5  G = 0.15

---------------------------------------------------------------------

軌道要素はM.P.E.C. 2005-X12に掲載されたものです。
星図は StellaNavigator Ver.2.0 for Windows (アストロアーツ 編著 / アスキー出版局刊) で作成したものです。
光度グラフはComet for Windowsで作成したものです。

---------------------------------------------------------------------

Copyright(C) Seiichi Yoshida (comet@aerith.net). All rights reserved.